Regional Weather Roundup
Issued by NWS

Home | Current Version | Previous Version | Text Only | Print | Product List | Glossary On
Versions: 1 2 3 4 5 6 7 8 9 10 11 12 13 14 15 16 17 18 19 20 21 22 23 24 25 26 27 28 29 30 31 32 33 34 35 36 37 38 39 40 41 42 43 44 45 46 47 48 49 50
000
ASUS43 KTOP 250859
RWRKS

WEATHER ROUNDUP FOR KANSAS
NATIONAL WEATHER SERVICE GOODLAND KS
300 AM CST SUN FEB 25 2018

NOTE:  "FAIR" INDICATES FEW OR NO CLOUDS BELOW 12,000 FEET WITH NO
SIGNIFICANT WEATHER AND/OR OBSTRUCTIONS TO VISIBILITY.

KSZ001>006-013>018-027>032-041>047-251000-
NORTHWEST KANSAS

CITY           SKY/WX    TMP DP  RH WIND       PRES   REMARKS
GOODLAND       PTCLDY    19  10  68 SW9       29.89F
HAYS           CLEAR     19  12  74 W6        29.98F
HILL CITY      CLEAR     18  12  77 W5        29.97S
RUSSELL        CLEAR     20  13  74 SW7       29.98S
$$

KSZ061>065-074>080-084>089-251000-
SOUTHWEST KANSAS

CITY           SKY/WX    TMP DP  RH WIND       PRES   REMARKS
DODGE CITY     CLOUDY    21   7  54 NE8       29.95F
GARDEN CITY    CLOUDY    20   6  55 E8        29.93F
GREAT BEND     CLEAR     15  11  83 NW6       29.99F
LIBERAL        CLEAR     27  15  61 E9        29.92F
$$

KSZ066>073-081>083-090>101-251000-
SOUTHEAST KANSAS

CITY           SKY/WX    TMP DP  RH WIND       PRES   REMARKS
CHANUTE        CLEAR     30  25  81 W5        30.00F
COFFEYVILLE    CLEAR     29  27  92 CALM      30.03R FOG
HUTCHINSON     CLEAR     26  18  71 W5        29.98F
MEDICINE LODGE   N/A     26  18  71 N5        29.97F
NEWTON         CLEAR     25  23  92 NW6       29.99F
PARSONS        CLEAR     27  26  96 CALM      30.02S
WICHITA INTL   CLEAR     30  23  75 NW6       29.98F
WICHITA JABRA  CLEAR     29  22  75 NW7       29.98S
WICHITA MCCONL CLEAR     29  22  74 NE3       29.98S
WINFIELD       CLEAR     24  24 100 CALM      30.01F
$$

KSZ007>012-019>026-033>040-048>060-102>105-251000-
NORTHEAST KANSAS

CITY           SKY/WX    TMP DP  RH WIND       PRES   REMARKS
CONCORDIA      CLEAR     26  18  71 SW13      29.96R WCI  15
EMPORIA        CLEAR     25  19  78 W7        29.99F
LAWRENCE       CLEAR     27  24  89 W6        29.98S
MANHATTAN      CLEAR     26  19  74 CALM      29.99R
OLATHE IND     CLEAR     26  24  92 SW5       29.98S
OLATHE EXE     CLEAR     28  26  92 W5        29.97S
SALINA         CLEAR     27  19  72 SW9       30.01S
TOPEKA BILLARD CLEAR     30  25  81 SW5       29.98S
TOPEKA FORBES  CLEAR     28  22  78 SW10      29.98R WCI  19
$$




USA.gov is the U.S. government's official web portal to all federal, state and local government web resources and services.